Volver al catálogo

STARLINK-37471

ActivoComunicacionesSSO
NORAD 68802·PAYLOAD·🇺🇸 United States

Lanzado Apr 23, 2026 desde Vandenberg Space Force Base

Loading…

Próximos Pases (próximas 24 horas)

TLE

ActualizadoSource: CelesTrak SupGP

Época: Sep 15, 2026, 02:25 UTC

1 68802C 26089A   26258.10118056 -.00011600  00000+0 -36029-3 0  2584
2 68802  97.2847 103.8574 0001894  87.3380  10.3142 15.33425927    15

Sigue STARLINK-37471 en tiempo real con AllMySat

Download on the App Store